Regional Weather Roundup
Issued by NWS

Home | Current Version | Previous Version | Text Only | Print | Product List | Glossary Off
Versions: 1 2 3 4 5 6 7 8 9 10 11 12 13 14 15 16 17 18 19 20 21 22 23 24 25 26 27 28 29 30 31 32 33 34 35 36 37 38 39 40 41 42 43 44 45 46 47 48 49 50

000
ASUS43 KIND 281809
RWRIN

WEATHER ROUNDUP FOR INDIANA
NATIONAL WEATHER SERVICE INDIANAPOLIS IN
100 PM EST SAT FEB 28 2015

NOTE: "FAIR" INDICATES FEW OR NO CLOUDS BELOW 12,000 FEET WITH NO
SIGNIFICANT WEATHER AND/OR OBSTRUCTIONS TO VISIBILITY.

* - STATION DOES NOT REPORT WEATHER SUCH AS PRECIPITATION OR FOG.

+ - STATION NOT QUALITY CONTROLLED BY THE NATIONAL WEATHER SERVICE.
    USE DATA WITH CAUTION...ESPECIALLY DEWPOINT AND RELATIVE
    HUMIDITY OBSERVATIONS.

INZ001>003-010>013-019-020-281900-
NORTHWEST INDIANA

CITY           SKY/WX    TMP DP  RH WIND       PRES   REMARKS
GARY /AIRPORT/ PTSUNNY   19  -4  35 SE10      30.70F WCI   8
KNOX *+          N/A     19 -13  23 S8        30.69F WCI   9
LA PORTE +     CLOUDY    19   4  51 S6        30.70F WCI  11
6HR MIN TEMP: -10; 6HR MAX TEMP:  19;

MICHIGAN CITY+ MOSUNNY   19  -6  32 SE7       30.71F WCI  10
MONTICELLO +   SUNNY     20   8  59 E5        30.67F WCI  14
6HR MIN TEMP:   2; 6HR MAX TEMP:  20;

RENSSELAER +   SUNNY     21  10  63 SE8       30.67F WCI  12
VALPARAISO     CLOUDY    14   2  58 E8        30.68F WCI   3
6HR MIN TEMP:  -9; 6HR MAX TEMP:  14;


$$

LMZ046-743>745-281900-
SOUTHERN LAKE MICHIGAN

STATION/POSITION TIME  TEMP WIND        PRES
                       AIR  DIR/SP/G
                 (UTC) (F)  (DEG/KT/KT) (MB)
MICHIGAN CITY    1800   15  130/  9/ 10   N/A

$$

INZ004-005-014>016-021>024-281900-
NORTH CENTRAL INDIANA

CITY           SKY/WX    TMP DP  RH WIND       PRES   REMARKS
ELKHART        SUNNY     18  -2  41 S6        30.71F WCI   9
GOSHEN         CLOUDY    18   3  52 S6        30.70F WCI  10
6HR MIN TEMP:  -9; 6HR MAX TEMP:  19;

LOGANSPORT +   SUNNY     21   7  53 E7        30.68F WCI  13
PERU/GRISSOM   PTSUNNY   21   8  56 E8        30.66F WCI  11
6HR MIN TEMP:   4; 6HR MAX TEMP:  21;

ROCHESTER +    SUNNY     23   7  50 S8        30.69F WCI  14
SOUTH BEND     MOSUNNY   18   0  45 SW7       30.70F WCI   9
6HR MIN TEMP:  -7; 6HR MAX TEMP:  18;

WARSAW +       MOSUNNY   21   3  45 S8        30.69F WCI  12

$$

INZ006>009-017-018-025>027-281900-
NORTHEAST INDIANA

CITY           SKY/WX    TMP DP  RH WIND       PRES   REMARKS
ANGOLA *+      SUNNY     16   0  48 S5        30.70F WCI   9
AUBURN +       SUNNY     21   3  45 E6        30.72F WCI  14
FORT WAYNE     PTSUNNY   18   4  54 SE9       30.72F WCI   7
6HR MIN TEMP:   1; 6HR MAX TEMP:  19;

HUNTINGTON +   MOSUNNY   20  -1  39 SE6       30.69F WCI  12
6HR MIN TEMP:   0; 6HR MAX TEMP:  20;


$$

INZ028-029-035-036-043>045-051>053-281900-
WEST CENTRAL INDIANA

CITY           SKY/WX    TMP DP  RH WIND       PRES   REMARKS
CRAWFORDSVL +  CLOUDY    21   1  42 SE9       30.65F WCI  10
6HR MIN TEMP:   6; 6HR MAX TEMP:  21;

GREENCASTLE +  MOSUNNY   23   1  39 E5        30.65F WCI  17
LAFAYETTE      SUNNY     22   8  55 SE8       30.67F WCI  12
6HR MIN TEMP:   6; 6HR MAX TEMP:  22;

TERRE HAUTE    SUNNY     24   6  46 SE10      30.65F WCI  14
6HR MIN TEMP:  12; 6HR MAX TEMP:  24;


$$

INZ030>032-037>040-046>048-054>057-064-065-281900-
CENTRAL INDIANA

CITY           SKY/WX    TMP DP  RH WIND       PRES   REMARKS
ANDERSON       PTSUNNY   21   3  45 E10       30.68F WCI  10
CP ATTERBURY + PTSUNNY   27   7  43 E7        30.67F WCI  19
COLUMBUS       PTSUNNY   23   1  39 E8        30.68F WCI  14
FRANKFORT +    SUNNY     23   8  53 E8        30.67F WCI  14
6HR MIN TEMP:   8; 6HR MAX TEMP:  23;

GREENWOOD *+   PTSUNNY   23   1  39 SE9       30.66F WCI  13
INDIANAPOLIS   PTSUNNY   22   5  48 SE12      30.64F WCI  10
6HR MIN TEMP:  12; 6HR MAX TEMP:  22;

-EAGLE CREEK   CLOUDY    22   5  48 E9        30.64F WCI  12
6HR MIN TEMP:  10; 6HR MAX TEMP:  22;

KOKOMO *+      SUNNY     19   9  63 SE8       30.67F WCI   9
6HR MIN TEMP:   3; 6HR MAX TEMP:  19;

MARION +       PTSUNNY   20   5  52 SE5       30.68F WCI  13
MT COMFORT *+  MOSUNNY   23  -4  30 E9        30.66F WCI  13
SHELBYVILLE    CLOUDY    23   7  50 SE8       30.65F WCI  14
6HR MIN TEMP:  10; 6HR MAX TEMP:  23;

ZIONSVILLE +   CLOUDY    23   5  45 SE9       30.66F WCI  13
6HR MIN TEMP:   9; 6HR MAX TEMP:  23;


$$

INZ033-034-041-042-049-050-058-059-281900-
EAST CENTRAL INDIANA

CITY           SKY/WX    TMP DP  RH WIND       PRES   REMARKS
MUNCIE         PTSUNNY   20   3  48 E9        30.67F WCI   9
6HR MIN TEMP:   2; 6HR MAX TEMP:  20;


$$

INZ060-061-067>069-081>083-085>088-281900-
SOUTHWEST INDIANA

CITY           SKY/WX    TMP DP  RH WIND       PRES   REMARKS
EVANSVILLE     CLOUDY    30  13  49 E8        30.63F WCI  22
6HR MIN TEMP:  20; 6HR MAX TEMP:  31;

HUNTINGBURG *+ CLOUDY    28  10  47 E5        30.63F WCI  23
6HR MIN TEMP:  18; 6HR MAX TEMP:  28;

WASHINGTON +   CLOUDY    28   5  36 SE7       30.64F WCI  21
6HR MIN TEMP:  16; 6HR MAX TEMP:  28;


$$

INZ062-063-066-070>080-084-089>092-281900-
SOUTH CENTRAL AND SOUTHEAST INDIANA

CITY           SKY/WX    TMP DP  RH WIND       PRES   REMARKS
BLOOMINGTON    PTSUNNY   24   4  42 SE10      30.63F WCI  14
6HR MIN TEMP:  13; 6HR MAX TEMP:  24;

NORTH VERNON + CLOUDY    27   3  36 SE8       30.66F WCI  18
SEYMOUR +      CLOUDY    28   9  43 E8        30.66F WCI  20

$$



USA.gov is the U.S. government's official web portal to all federal, state and local government web resources and services.